This is the latest recevied weather packets stored in our database for station/object K6CED. If no packets are shown the sender has not sent any weather packets the latest 10 day(s).
| Time | Temp. | Humidity | Pressure | Rain* | Wind** | Luminosity | Snow |
|---|---|---|---|---|---|---|---|
| 1788391815 | 28.89° C | 36% | 1016.5 hPa | 0 mm | - | 354 W/m² | - |
| 1788391514 | 29.44° C | 34% | 1016.6 hPa | 0 mm | - | 371 W/m² | - |
| 1788391208 | 29.44° C | 30% | 1016.5 hPa | 0 mm | - | 386 W/m² | - |
| 1788390903 | 30° C | 31% | 1016.4 hPa | 0 mm | - | 404 W/m² | - |
| 1788390598 | 29.44° C | 31% | 1016.7 hPa | 0 mm | - | 427 W/m² | - |
| 1788390291 | 29.44° C | 32% | 1016.7 hPa | 0 mm | - | 458 W/m² | - |
| 1788389985 | 30° C | 29% | 1016.7 hPa | 0 mm | - | 477 W/m² | - |
| 1788389681 | 30° C | 28% | 1016.5 hPa | 0 mm | - | 499 W/m² | - |
| 1788389379 | 30° C | 29% | 1016.6 hPa | 0 mm | - | 520 W/m² | - |
| 1788389079 | 30.56° C | 28% | 1016.6 hPa | 0 mm | - | 540 W/m² | - |
| 1788388776 | 30.56° C | 27% | 1016.9 hPa | 0 mm | - | 558 W/m² | - |
| 1788388471 | 31.11° C | 26% | 1017.1 hPa | 0 mm | - | 578 W/m² | - |
| 1788388170 | 30.56° C | 25% | 1017 hPa | 0 mm | - | 597 W/m² | - |
| 1788387869 | 31.11° C | 25% | 1016.9 hPa | 0 mm | - | 613 W/m² | - |
| 1788387563 | 30.56° C | 23% | 1017 hPa | 0 mm | - | 632 W/m² | - |
| 1788387262 | 30.56° C | 26% | 1017 hPa | 0 mm | - | 643 W/m² | - |
| 1788386958 | 30.56° C | 24% | 1017 hPa | 0 mm | - | 661 W/m² | - |
| 1788386657 | 30.56° C | 25% | 1017.1 hPa | 0 mm | - | 678 W/m² | - |
| 1788386353 | 30° C | 26% | 1017.2 hPa | 0 mm | - | 691 W/m² | - |
| 1788386048 | 30.56° C | 24% | 1017.2 hPa | 0 mm | - | 703 W/m² | - |
| 1788385744 | 30.56° C | 24% | 1017.3 hPa | 0 mm | - | 714 W/m² | - |
| 1788385443 | 30.56° C | 25% | 1017.3 hPa | 0 mm | - | 720 W/m² | - |
| 1788385137 | 30.56° C | 25% | 1017.4 hPa | 0 mm | - | 727 W/m² | - |
| 1788384834 | 30.56° C | 24% | 1017.6 hPa | 0 mm | - | 736 W/m² | - |
| 1788384532 | 30.56° C | 26% | 1017.5 hPa | 0 mm | - | 747 W/m² | - |
* Rain latest hour (hover to see other rain measurements)
** Current wind speed in m/s (hover to see current wind gust speed)